Weather History for KPBI - January, 2014

Change the Weather History Date:

Saturday, January 4, 2014

  Actual Average Record
Temperature  
Mean Temperature 71 °F 66 °F  
Max Temperature 75 °F 75 °F 89 °F (1942)
Min Temperature 67 °F 57 °F 32 °F (1918)
Degree Days  
Heating Degree Days 0 3  
Month to date heating degree days 0 12  
Since 1 July heating degree days 4 83  
Cooling Degree Days 6 4  
Month to date cooling degree days 33 16  
Year to date cooling degree days 33 16  
Growing Degree Days 16 (Base 50)    
Moisture  
Dew Point 60 °F    
Average Humidity 67    
Maximum Humidity 79    
Minimum Humidity 55    
Precipitation  
Precipitation 0.02 in 0.11 in 2.17 in (1966)
Month to date precipitation 0.02 0.45  
Year to date precipitation 0.02 0.45  
Snow  
Snow 0.00 in - - ()
Month to date snowfall 0.0  
Since 1 July snowfall 0.0  
Snow Depth 0.00 in    
Sea Level Pressure  
Sea Level Pressure 30.12 in    
Wind  
Wind Speed 11 mph (East)    
Max Wind Speed 17 mph    
Max Gust Speed 22 mph    
Visibility 10 miles    
Events Rain    
T = Trace of Precipitation, MM = Missing Value Source: NWS Daily Summary

Daily Weather History Graph

Daily Weather History Graph

Search for Another Location

Airport or City:

Trip Planner

Search our weather history database for the weather conditions in past years. The results will help you decide how hot, cold, wet, or windy it might be!

Date:

Astronomy

Jan. 04, 2014 Rise Set
Actual Time 7:09 AM EST 5:41 PM EST
Civil Twilight 6:44 AM EST 6:06 PM EST
Nautical Twilight 6:15 AM EST 6:35 PM EST
Astronomical Twilight 5:47 AM EST 7:03 PM EST
Moon 9:36 AM EST (1/4) 9:34 PM EST (1/4)
Length of Visible Light 11h 22m
Length of Day
10h 31m
Waxing Crescent, 15% of the Moon is Illuminated
Jan 4
Waxing Crescent
Jan 7
First Quarter
Jan 15
Full
Jan 24
Last Quarter
Jan 30
New

Hourly Weather History & Observations

Time (EST) Temp. Dew Point Humidity Pressure Visibility Wind Dir Wind Speed Gust Speed Precip Events Conditions
12:53 AM 68.0 °F 52.0 °F 56% 30.16 in 10.0 mi ENE 17.3 mph 20.7 mph N/A   Mostly Cloudy
1:53 AM 66.9 °F 52.0 °F 59% 30.14 in 10.0 mi East 10.4 mph - N/A   Scattered Clouds
2:53 AM 68.0 °F 51.1 °F 55% 30.12 in 10.0 mi East 15.0 mph - N/A   Partly Cloudy
3:53 AM 68.0 °F 52.0 °F 56% 30.13 in 10.0 mi East 12.7 mph - N/A   Partly Cloudy
4:53 AM 68.0 °F 53.1 °F 59% 30.12 in 10.0 mi East 13.8 mph - N/A   Scattered Clouds
5:53 AM 69.1 °F 53.1 °F 57% 30.13 in 10.0 mi East 12.7 mph - N/A   Partly Cloudy
6:53 AM 68.0 °F 55.0 °F 63% 30.14 in 10.0 mi East 8.1 mph - N/A   Mostly Cloudy
7:53 AM 70.0 °F 55.9 °F 61% 30.17 in 10.0 mi East 6.9 mph - N/A   Mostly Cloudy
8:53 AM 71.1 °F 57.0 °F 61% 30.17 in 10.0 mi East 11.5 mph - N/A   Mostly Cloudy
9:53 AM 73.0 °F 57.9 °F 59% 30.18 in 10.0 mi ESE 13.8 mph - N/A   Mostly Cloudy
10:53 AM 73.0 °F 59.0 °F 61% 30.18 in 10.0 mi East 10.4 mph - N/A   Mostly Cloudy
11:53 AM 73.0 °F 60.1 °F 64% 30.16 in 10.0 mi East 13.8 mph - N/A   Mostly Cloudy
12:53 PM 73.9 °F 62.1 °F 66% 30.13 in 10.0 mi East 10.4 mph - N/A   Overcast
1:53 PM 73.0 °F 63.0 °F 71% 30.11 in 10.0 mi East 6.9 mph - 0.00 in   Mostly Cloudy
2:20 PM 73.4 °F 64.4 °F 73% 30.12 in 10.0 mi East 9.2 mph - 0.00 in Rain Light Rain
2:53 PM 72.0 °F 64.9 °F 78% 30.10 in 10.0 mi ENE 9.2 mph - 0.01 in Rain Light Rain
3:37 PM 71.6 °F 66.2 °F 83% 30.08 in 10.0 mi East 9.2 mph - 0.01 in   Mostly Cloudy
3:53 PM 73.0 °F 66.0 °F 79% 30.08 in 10.0 mi ENE 11.5 mph - 0.01 in   Mostly Cloudy
4:53 PM 73.0 °F 64.9 °F 76% 30.09 in 10.0 mi East 15.0 mph - N/A   Overcast
5:53 PM 73.0 °F 66.0 °F 79% 30.09 in 10.0 mi East 10.4 mph - N/A   Overcast
6:53 PM 73.9 °F 66.0 °F 76% 30.11 in 10.0 mi East 8.1 mph - N/A   Overcast
7:53 PM 73.9 °F 66.0 °F 76% 30.12 in 10.0 mi East 5.8 mph - 0.00 in   Overcast
8:53 PM 73.9 °F 66.0 °F 76% 30.10 in 10.0 mi East 11.5 mph - N/A   Overcast
9:53 PM 73.9 °F 66.0 °F 76% 30.10 in 10.0 mi East 11.5 mph - N/A   Mostly Cloudy
10:53 PM 73.9 °F 66.0 °F 76% 30.10 in 10.0 mi East 11.5 mph - N/A   Mostly Cloudy
11:53 PM 75.0 °F 66.9 °F 76% 30.07 in 10.0 mi ESE 12.7 mph - N/A   Mostly Cloudy